Shreveport Downtown, LA

3:50 PM CDT on August 18, 2017 (GMT -0500)
Shreveport Downtown

Weather History for KDTN - March, 2013

Change the Weather History Date:

Wednesday, March 20, 2013

  Actual Average (KBAD) Record (KBAD)
Temperature  
Mean Temperature 57 °F -  
Max Temperature 66 °F 66 °F 86 °F (2004)
Min Temperature 46 °F 47 °F 37 °F (1998)
Degree Days  
Heating Degree Days 8    
Growing Degree Days 7 (Base 50)    
Moisture  
Dew Point 31 °F    
Average Humidity 42    
Maximum Humidity 77    
Minimum Humidity 20    
Precipitation  
Precipitation 0.00 in - - ()
Sea Level Pressure  
Sea Level Pressure 30.17 in    
Wind  
Wind Speed 5 mph (NNE)    
Max Wind Speed 15 mph    
Max Gust Speed 20 mph    
Visibility 10 miles    
Events      
Averages and records for this station are not official NWS values.
T = Trace of Precipitation, MM = Missing Value Source: NWS Daily Summary

Daily Weather History Graph

Daily Weather History Graph

Search for Another Location

Airport or City:

Trip Planner

Search our weather history database for the weather conditions in past years. The results will help you decide how hot, cold, wet, or windy it might be!

Date:

Astronomy

Mar. 20, 2013 Rise Set
Actual Time 7:18 AM CDT 7:26 PM CDT
Civil Twilight 6:53 AM CDT 7:51 PM CDT
Nautical Twilight 6:25 AM CDT 8:19 PM CDT
Astronomical Twilight 5:56 AM CDT 8:48 PM CDT
Moon 1:19 PM CDT (3/20) 2:40 AM CDT (3/20)
Length of Visible Light 12h 57m
Length of Day
12h 08m
First Quarter, 59% of the Moon is Illuminated
Mar 20
First Quarter
Mar 27
Full
Apr 2
Last Quarter
Apr 10
New
Apr 18
First Quarter

Hourly Weather History & Observations

Time (CDT) Temp. Dew Point Humidity Pressure Visibility Wind Dir Wind Speed Gust Speed Precip Events Conditions
12:53 AM 57.0 °F 33.1 °F 40% 30.14 in 10.0 mi NNE 5.8 mph - N/A   Overcast
1:53 AM 55.0 °F 34.0 °F 45% 30.16 in 10.0 mi NE 4.6 mph - 0.00 in   Overcast
2:53 AM 54.0 °F 34.0 °F 47% 30.16 in 10.0 mi Calm Calm - N/A   Partly Cloudy
3:53 AM 52.0 °F 33.1 °F 49% 30.15 in 10.0 mi NNE 5.8 mph - N/A   Partly Cloudy
4:53 AM 51.1 °F 30.9 °F 46% 30.17 in 10.0 mi NE 5.8 mph - N/A   Clear
5:53 AM 48.9 °F 30.0 °F 48% 30.18 in 10.0 mi NNE 5.8 mph - N/A   Clear
6:53 AM 48.0 °F 30.0 °F 50% 30.20 in 10.0 mi NNE 3.5 mph - N/A   Clear
7:53 AM 48.0 °F 32.0 °F 54% 30.23 in 10.0 mi Calm Calm - N/A   Clear
8:53 AM 50.0 °F 32.0 °F 50% 30.26 in 10.0 mi North 9.2 mph - N/A   Clear
9:53 AM 53.1 °F 30.9 °F 43% 30.27 in 10.0 mi NNE 6.9 mph - N/A   Clear
10:53 AM 55.0 °F 33.1 °F 43% 30.28 in 10.0 mi North 6.9 mph - N/A   Clear
11:53 AM 60.1 °F 34.0 °F 38% 30.27 in 10.0 mi Variable 5.8 mph - N/A   Clear
12:53 PM 64.0 °F 34.0 °F 33% 30.24 in 10.0 mi NNW 10.4 mph - N/A   Clear
1:53 PM 64.9 °F 28.9 °F 26% 30.21 in 10.0 mi North 9.2 mph 16.1 mph N/A   Clear
2:53 PM 66.0 °F 26.1 °F 22% 30.17 in 10.0 mi North 15.0 mph 19.6 mph N/A   Clear
3:53 PM 66.0 °F 24.1 °F 20% 30.15 in 10.0 mi NNW 8.1 mph - N/A   Clear
4:53 PM 66.0 °F 24.1 °F 20% 30.13 in 10.0 mi North 10.4 mph 17.3 mph N/A   Clear
5:53 PM 64.9 °F 24.1 °F 21% 30.11 in 10.0 mi NNE 9.2 mph - N/A   Clear
6:53 PM 62.1 °F 25.0 °F 24% 30.11 in 10.0 mi NNE 6.9 mph - N/A   Clear
7:53 PM 57.0 °F 26.1 °F 30% 30.10 in 10.0 mi Calm Calm - N/A   Clear
8:53 PM 53.1 °F 30.0 °F 41% 30.09 in 10.0 mi Calm Calm - N/A   Clear
9:53 PM 51.1 °F 39.9 °F 66% 30.09 in 10.0 mi Calm Calm - N/A   Clear
10:53 PM 48.9 °F 42.1 °F 77% 30.09 in 10.0 mi Calm Calm - N/A   Clear
11:53 PM 46.0 °F 37.9 °F 73% 30.07 in 10.0 mi Calm Calm - N/A   Clear